Home   Weather   Antananarivo   Past weeks

Flag for Madagascar Past Weather in Antananarivo, Madagascar — Yesterday and Last 2 Weeks

Now
82 °F

Partly sunny.


Feels Like: 83 °F
Forecast: 59 / 85 °F
Wind: 2 mph from North

Location: Antananarivo / Ivato

Current Time: Feb 28, 2017 at 3:59:24 pm

Latest Report: Feb 28, 2017 at 3:00 pm


Visibility: N/A

Pressure: 30.07 "Hg (25.98 "Hg at 1287m altitude)

Humidity: 51%

Dew Point: 63 °F

Location of AntananarivoLocation

Past Weather in Antananarivo — Graph

°F

Antananarivo Temperature Yesterday

Maximum temperature yesterday: 88 °F (at 3:00 pm)
Minimum temperature yesterday: 64 °F (at 6:00 am)
Average temperature yesterday: 73 °F

High & Low Weather Summary for the Past Weeks

 TemperatureHumidityPressure
High88 °F (Feb 27, 3:00 pm)100% (Feb 13, 4:30 pm)30.39 "Hg (Feb 13, 4:30 pm)
Low59 °F (Feb 20, 5:00 am)37% (Feb 25, 5:30 pm)29.95 "Hg (Feb 26, 4:30 pm)
Average71 °F82%30.11 "Hg
* Reported Feb 13 3:00 pm — Feb 28 3:00 pm, Antananarivo, Weather by CustomWeather, © 2017

Note: Actual official high and low records may vary slightly from our data, if they occured in-between our weather recording intervals... More about our weather records

Advertising

Antananarivo Weather History for the Previous 24 Hours

Scroll right to see more
 ConditionsComfort  
Time TempWeatherWind HumidityBarometerVisibility
3:00 pm
Tue, Feb 28
82 °FPartly sunny.2 mph51%30.07 "HgN/A
2:30 pm82 °FPartly sunny.6 mph55%30.07 "HgN/A
2:00 pm82 °FPartly sunny.No wind55%30.07 "HgN/A
1:30 pm81 °FPartly sunny.9 mph58%30.07 "HgN/A
1:00 pm81 °FPartly sunny.10 mph58%30.07 "HgN/A
12:30 pm81 °FPartly sunny.7 mph58%30.09 "HgN/A
12:00 pm79 °FScattered clouds.7 mph61%30.09 "HgN/A
11:30 am81 °FPassing clouds.6 mph66%30.09 "HgN/A
11:00 am77 °FScattered clouds.8 mph65%30.09 "HgN/A
10:30 am79 °FPartly sunny.8 mph65%30.09 "HgN/A
10:00 am73 °FPartly sunny.10 mph74%30.09 "HgN/A
9:30 am73 °FBroken clouds.7 mph78%30.12 "HgN/A
9:00 am73 °FScattered clouds.No wind78%30.12 "HgN/A
8:30 am72 °FScattered clouds.No wind83%30.09 "HgN/A
8:00 am70 °FPartly sunny.No wind94%30.09 "HgN/A
7:30 am68 °FPartly sunny.3 mph100%30.09 "HgN/A
7:00 am68 °FScattered clouds.No wind100%30.09 "HgN/A
6:30 am66 °FScattered clouds.No wind88%30.09 "HgN/A
6:00 am63 °FPartly sunny.No wind100%30.09 "HgN/A
5:30 am63 °FPassing clouds.No wind100%30.07 "HgN/A
5:00 am63 °FPassing clouds.No wind100%30.07 "HgN/A
4:30 am64 °FPassing clouds.No wind100%30.07 "HgN/A
4:00 am64 °FPassing clouds.No wind100%30.07 "HgN/A
3:30 am64 °FPassing clouds.No wind100%30.09 "HgN/A
3:00 am64 °FPassing clouds.No wind100%30.09 "HgN/A
2:30 am64 °FPassing clouds.No wind100%30.09 "HgN/A
2:00 am64 °FPassing clouds.No wind100%30.09 "HgN/A
1:30 am66 °FPassing clouds.No wind100%30.09 "HgN/A
1:00 am66 °FPassing clouds.No wind100%30.09 "HgN/A
12:30 am66 °FPassing clouds.No wind100%30.09 "HgN/A
12:00 am66 °FPassing clouds.No wind100%30.09 "HgN/A
11:30 pm
Mon, Feb 27
66 °FPassing clouds.No wind100%30.09 "HgN/A
11:00 pm66 °FThundershowers. Passing clouds.No wind94%30.09 "HgN/A
10:30 pm66 °FThundershowers. Passing clouds.No wind94%30.07 "HgN/A
10:00 pm66 °FThundershowers. Passing clouds.7 mph88%30.07 "HgN/A
9:30 pm64 °FThundershowers. Passing clouds.8 mph94%30.07 "HgN/A
9:00 pm68 °FThunderstorms. Passing clouds.9 mph78%30.09 "HgN/A
8:30 pm68 °FThunderstorms. Passing clouds.8 mph88%30.09 "HgN/A
8:00 pm70 °FThunderstorms. Passing clouds.8 mph88%30.07 "HgN/A
7:30 pm70 °FThunderstorms. Partly cloudy.No wind94%30.04 "HgN/A
7:00 pm70 °FThunderstorms. Partly cloudy.8 mph88%30.04 "HgN/A
6:30 pm70 °FThundershowers. Passing clouds.10 mph88%30.04 "HgN/A
6:00 pm72 °FScattered clouds.13 mph83%30.01 "HgN/A
5:30 pm73 °FScattered showers. Scattered clouds.No wind65%29.98 "HgN/A
5:00 pm73 °FScattered showers. Scattered clouds.8 mph69%29.95 "HgN/A
4:30 pm72 °FThunderstorms. Scattered clouds.7 mph73%29.98 "HgN/A
4:00 pm75 °FThunderstorms. Scattered clouds.13 mph69%29.98 "Hg5 mi
3:30 pm86 °FThunderstorms. Scattered clouds.No wind43%29.95 "Hg5 mi
3:20 pm88 °FThunderstorms. Passing clouds.No wind46%29.95 "Hg5 mi
3:00 pm88 °FScattered showers. Passing clouds.No wind40%29.95 "HgN/A
Weather by CustomWeather, © 2017

See weather overviewHow to use our weather pages